Wind_Speed
37 37 38 39 40 40 41 42 42 42 42 43 44 44 45 46 46 47 48 48 47 48 47 47 47 48 48 48 48 48 49 49 49 50 50 51 51 52
37 38 39 40 41 41 42 42 42 42 43 44 44 44 45 45 46 47 47 47 46 46 47 46 46 47 47 47 47 47 47 47 47 48 48 49 51 51
37 38 39 40 40 41 41 41 42 42 43 43 44 44 45 45 45 45 45 45 45 45 45 45 45 45 45 45 45 44 44 44 44 44 45 46 47 47
35 36 37 38 39 40 40 41 41 41 41 42 42 42 43 43 43 43 43 42 43 43 43 42 42 42 41 41 40 40 40 40 40 40 41 42 43 44
34 35 36 37 38 38 38 39 39 39 40 40 40 41 40 41 41 41 41 41 41 40 40 40 39 38 37 37 36 36 36 36 37 37 37 38 39 40
35 36 36 37 36 37 37 37 37 38 38 38 38 38 38 38 38 38 38 38 38 37 36 36 35 35 35 35 34 34 34 35 35 35 36 36 35 35
33 33 34 34 34 34 34 35 35 35 35 36 36 35 35 35 35 35 35 34 33 33 32 32 32 32 31 31 31 31 32 32 33 33 33 32 32 33
31 31 31 32 32 32 32 33 32 32 33 33 33 32 31 31 31 31 30 30 30 29 29 28 28 28 28 28 29 30 30 30 31 31 31 31 31 31
29 30 30 30 29 29 29 30 30 30 30 29 29 28 28 27 28 27 27 26 26 25 25 25 25 25 25 26 27 27 28 28 29 29 29 29 29 29
27 27 27 27 27 27 27 27 27 26 26 26 26 25 25 25 25 24 24 23 22 21 22 23 23 23 23 24 24 25 26 26 26 26 26 26 26 26
24 24 24 24 25 25 24 23 23 23 23 23 23 23 23 22 22 21 20 19 19 19 20 20 20 21 21 22 22 23 23 23 24 24 24 24 24 24
22 21 22 22 22 21 20 20 20 20 20 20 20 20 19 19 18 17 17 17 17 17 17 17 18 19 20 20 21 21 21 21 21 22 22 23 23 23
19 20 20 19 19 18 18 18 18 18 17 17 17 16 16 15 15 14 14 14 14 15 15 16 17 17 18 18 18 19 19 20 20 20 20 21 22 22
17 17 17 16 16 16 16 16 15 15 15 15 14 13 13 13 12 12 11 12 12 13 14 15 15 16 16 16 17 18 18 19 20 20 20 21 21 21
15 15 14 14 14 14 14 14 13 13 12 12 11 11 11 10 10 10 10 10 11 12 12 13 13 13 14 15 16 17 17 18 19 20 20 21 22 22
13 12 12 12 13 13 13 12 11 10 10 10 9 9 9 8 8 9 9 9 10 10 11 11 11 12 13 14 15 16 17 18 19 20 20 21 22 22
11 11 11 11 11 11 11 10 9 8 8 8 8 8 7 7 7 7 7 8 8 9 10 11 11 11 12 14 15 16 17 18 19 20 21 21 21 22
9 9 9 10 9 9 8 8 8 7 7 7 6 6 5 5 5 6 6 6 7 8 10 10 11 12 13 14 15 16 18 18 19 20 21 21 22 22
7 8 8 8 8 7 7 7 6 6 6 5 5 4 4 4 4 4 5 6 7 8 9 10 11 12 13 14 15 17 18 19 20 21 22 22 22 22
7 7 6 6 6 6 6 5 5 5 4 3 3 3 3 3 3 4 5 6 7 8 9 10 11 12 13 14 15 16 17 19 20 21 21 22 22 22
5 5 5 5 5 5 4 4 3 3 2 2 2 2 3 3 4 5 6 7 7 8 9 10 11 12 13 14 15 16 17 19 20 21 21 22 23 23
5 5 5 4 4 4 4 3 3 2 2 3 3 4 4 4 5 6 6 7 8 8 9 10 11 12 13 14 15 16 17 18 20 21 21 22 23 23
5 5 4 4 4 4 4 3 3 4 4 4 5 5 5 6 6 6 7 7 8 8 9 10 11 12 12 13 15 16 17 18 19 20 21 22 22 23
Wind_Direction
265 267 270 272 274 275 275 276 278 279 280 281 282 284 285 286 286 286 287 287 288 288 289 290 290 290 289 289 288 287 286 285 284 284 282 280 280 279
268 270 272 273 273 275 277 277 279 281 282 283 284 286 287 287 288 288 289 289 289 290 290 290 290 290 289 289 288 287 287 286 286 285 284 282 281 280
270 272 274 275 275 277 279 280 281 282 283 284 285 286 287 288 289 289 290 290 290 291 291 291 291 290 290 289 289 289 289 289 289 288 287 285 284 283
273 274 276 277 277 279 280 281 282 283 284 285 287 288 288 289 290 291 291 291 291 292 291 291 291 290 290 290 290 291 292 292 292 292 291 289 287 285
275 276 277 278 279 280 281 282 283 285 286 287 288 290 290 291 291 292 292 292 292 291 291 292 292 292 292 293 293 294 295 296 296 295 295 295 292 289
276 277 279 280 280 281 282 283 284 286 287 288 290 291 293 293 294 294 294 294 293 294 294 295 296 297 297 297 297 297 298 298 298 299 299 298 297 294
279 280 280 280 282 282 283 284 286 287 288 289 291 293 294 295 295 296 297 297 296 296 297 298 299 299 299 299 300 300 300 301 301 302 302 302 301 300
280 281 282 282 283 285 286 287 287 288 289 291 292 294 296 297 298 299 300 300 299 299 300 300 302 302 303 303 303 304 305 306 307 306 306 305 304 304
282 283 285 285 285 287 288 288 289 289 290 292 294 296 297 299 301 302 302 302 303 303 303 304 305 305 306 307 308 309 310 311 311 311 311 311 310 309
284 285 286 286 287 288 288 289 290 291 293 294 296 298 300 302 303 304 305 305 306 307 307 307 308 309 311 313 314 315 316 316 317 318 318 318 318 317
286 287 287 287 289 290 290 290 291 293 294 296 298 300 302 303 304 306 308 309 310 311 311 312 314 316 317 319 320 321 322 323 324 325 325 325 325 325
286 287 288 290 291 291 291 292 293 295 296 298 300 301 303 304 307 309 310 311 314 316 319 320 322 325 326 327 327 329 331 333 334 334 335 335 334 334
287 289 290 292 293 292 293 294 294 296 298 300 303 304 306 307 309 311 312 314 318 321 324 326 328 331 332 334 337 339 341 343 344 345 345 346 347 346
289 290 291 292 293 294 295 295 296 297 299 302 303 304 307 308 310 313 317 320 323 326 329 332 335 338 341 344 347 350 352 353 354 355 356 357 358 358
288 290 291 292 294 295 295 296 297 299 301 303 305 307 309 312 317 321 325 328 330 334 338 342 345 348 352 354 356 359 1 3 5 6 6 6 6 5
289 290 291 293 295 295 296 298 299 300 303 307 310 313 317 321 325 328 330 332 337 344 350 355 357 360 1 3 7 10 11 12 13 13 12 12 12 13
288 291 294 296 297 299 301 301 301 302 306 311 314 317 320 324 329 334 338 342 351 359 4 7 10 11 13 16 18 19 19 18 17 17 16 15 16 17
294 297 298 299 298 297 299 302 302 305 310 315 317 321 327 333 340 347 353 1 9 14 15 18 20 22 25 26 25 25 24 21 19 19 20 20 21 22
303 304 304 304 302 299 301 304 307 310 314 320 325 333 344 353 1 10 18 24 25 26 27 29 30 30 31 31 30 28 26 25 24 24 24 25 26 26
311 311 312 312 312 312 312 313 315 319 323 330 342 358 15 27 31 37 40 41 39 38 39 39 39 37 35 33 31 29 29 29 28 27 28 28 29 28
326 327 328 329 329 331 333 334 336 340 348 6 26 45 61 62 59 58 55 51 50 49 47 44 42 39 37 35 33 32 32 31 30 30 30 29 28 27
342 343 344 346 349 353 359 4 11 26 48 64 69 79 83 78 72 70 64 60 58 54 49 45 43 40 38 36 35 33 31 30 29 28 28 27 26 26
4 6 9 12 16 21 29 40 52 63 75 84 87 89 89 85 81 77 71 67 61 55 49 46 43 40 38 36 34 32 30 29 27 26 26 25 24 23
Height
5785 5785 5784 5784 5782 5781 5779 5777 5776 5773 5771 5769 5766 5764 5760 5758 5755 5751 5748 5745 5741 5738 5734 5730 5727 5723 5719 5716 5712 5708 5704 5700 5697 5693 5689 5686 5683 5680
5776 5775 5774 5773 5772 5770 5769 5767 5764 5763 5760 5758 5755 5752 5750 5746 5743 5740 5737 5733 5729 5726 5722 5718 5715 5711 5707 5703 5699 5695 5691 5687 5683 5679 5676 5672 5668 5665
5767 5766 5764 5763 5762 5760 5758 5756 5754 5752 5750 5747 5744 5741 5739 5735 5732 5728 5725 5721 5718 5714 5710 5707 5703 5699 5695 5691 5687 5683 5679 5675 5670 5666 5662 5658 5654 5651
5757 5756 5754 5753 5751 5750 5748 5746 5744 5742 5739 5737 5734 5731 5728 5725 5721 5717 5714 5710 5707 5703 5699 5695 5691 5687 5683 5679 5675 5671 5667 5663 5659 5655 5650 5646 5642 5638
5748 5746 5745 5743 5741 5740 5738 5736 5734 5731 5729 5726 5723 5720 5717 5714 5710 5707 5703 5700 5696 5692 5688 5685 5680 5676 5672 5669 5665 5661 5657 5653 5649 5645 5640 5635 5630 5626
5738 5737 5735 5734 5732 5730 5728 5726 5724 5722 5719 5717 5714 5711 5707 5704 5701 5697 5694 5690 5686 5682 5679 5675 5671 5667 5663 5660 5656 5652 5648 5644 5640 5635 5630 5626 5621 5616
5729 5728 5726 5724 5722 5720 5719 5717 5715 5712 5710 5708 5705 5702 5698 5695 5692 5688 5684 5680 5677 5674 5670 5667 5663 5660 5656 5652 5648 5644 5640 5636 5631 5626 5621 5617 5612 5607
5721 5719 5717 5716 5714 5712 5710 5708 5706 5704 5702 5699 5696 5694 5690 5687 5684 5680 5677 5673 5670 5667 5663 5660 5656 5653 5649 5645 5641 5637 5633 5628 5623 5619 5614 5609 5604 5598
5713 5711 5709 5707 5706 5704 5702 5700 5698 5696 5694 5691 5689 5686 5683 5680 5677 5674 5670 5667 5664 5660 5657 5654 5651 5647 5643 5639 5635 5631 5626 5622 5617 5612 5607 5601 5596 5591
5705 5704 5702 5700 5698 5697 5695 5693 5690 5688 5686 5684 5682 5679 5677 5674 5671 5668 5665 5662 5659 5656 5652 5649 5646 5642 5638 5634 5630 5626 5621 5616 5611 5606 5601 5595 5590 5584
5698 5697 5695 5694 5692 5690 5688 5686 5684 5682 5680 5678 5675 5673 5671 5668 5666 5663 5660 5657 5655 5652 5648 5645 5641 5638 5634 5630 5625 5621 5616 5611 5607 5601 5596 5590 5585 5579
5693 5691 5689 5687 5686 5684 5682 5680 5678 5676 5675 5673 5670 5668 5666 5663 5661 5659 5656 5654 5651 5648 5645 5642 5638 5634 5630 5626 5622 5617 5613 5608 5603 5598 5593 5587 5581 5575
5687 5685 5684 5682 5680 5679 5677 5675 5673 5672 5670 5668 5666 5664 5662 5660 5658 5655 5653 5651 5648 5645 5642 5639 5635 5632 5628 5624 5619 5615 5610 5605 5600 5595 5590 5585 5579 5573
5682 5681 5679 5678 5676 5674 5673 5671 5669 5668 5666 5664 5662 5660 5658 5657 5655 5653 5650 5648 5645 5643 5640 5637 5633 5630 5626 5622 5618 5614 5609 5604 5599 5594 5589 5583 5578 5572
5678 5676 5675 5674 5672 5671 5669 5668 5666 5664 5662 5661 5659 5657 5656 5654 5652 5650 5648 5646 5644 5641 5638 5635 5632 5629 5625 5622 5617 5613 5609 5604 5599 5594 5589 5583 5578 5572
5674 5673 5672 5670 5669 5667 5666 5664 5662 5661 5659 5658 5656 5655 5653 5651 5650 5648 5646 5644 5642 5640 5637 5634 5631 5628 5625 5621 5618 5613 5609 5605 5600 5595 5590 5584 5579 5573
5671 5670 5669 5667 5666 5664 5662 5661 5659 5658 5656 5655 5654 5652 5651 5649 5648 5646 5645 5643 5641 5639 5636 5634 5631 5628 5625 5622 5618 5614 5610 5606 5601 5596 5591 5586 5581 5575
5668 5667 5666 5664 5663 5661 5660 5658 5657 5655 5654 5653 5652 5650 5649 5648 5647 5645 5644 5642 5640 5639 5636 5634 5631 5629 5626 5623 5619 5616 5611 5607 5603 5598 5593 5588 5583 5578
5666 5664 5663 5661 5660 5658 5657 5655 5654 5653 5652 5651 5650 5649 5648 5647 5646 5645 5643 5642 5641 5639 5637 5635 5632 5630 5627 5624 5621 5617 5613 5609 5605 5600 5595 5590 5585 5580
5663 5662 5661 5659 5658 5656 5655 5653 5652 5651 5650 5649 5649 5648 5647 5646 5646 5645 5644 5643 5641 5640 5638 5636 5634 5631 5628 5626 5623 5619 5615 5611 5607 5603 5598 5593 5588 5584
5662 5660 5659 5657 5656 5654 5653 5652 5651 5650 5649 5649 5648 5647 5647 5647 5646 5645 5644 5643 5642 5641 5639 5638 5635 5633 5630 5628 5625 5621 5618 5614 5609 5605 5601 5596 5591 5587
5661 5659 5658 5656 5655 5654 5652 5651 5650 5650 5649 5649 5648 5648 5648 5647 5647 5646 5645 5645 5644 5642 5641 5639 5637 5635 5632 5630 5626 5623 5620 5616 5612 5608 5603 5599 5594 5589
5660 5659 5657 5656 5655 5653 5652 5651 5651 5650 5649 5649 5649 5649 5648 5648 5648 5647 5647 5646 5645 5644 5642 5641 5639 5636 5634 5631 5628 5625 5622 5618 5614 5610 5606 5601 5597 5592